Location: Borojevi?i
(45.0486°N, 16.2297°E)
Time: 16:32:48
(UTC+00:00)

Cosmos 1975 - Pass Details

Date: 08 August 2020
Orbit: 542 x 561 km, 82.5° (Epoch: 25 September)

Event Time Altitude Azimuth Distance (km) Brightness Sun altitude
Exits shadow 23:02:10 32° 17° (NNE) 957 4.5 -29.2°
Drops below altitude 10° 23:04:26 10° 12° (NNE) 1,837 6.4 -29.2°
Sets 23:06:37 0° 11° (N) 2,740 7.6 -29.2°
